Find Starlink 30414

NORAD ID: 57859 Int'l Des: 2023-141 Owner: SPXS Country: US Constellation: starlink operational
LEOCIRCULAR

当前视图

正在加载3D地球...

About Starlink 30414

Starlink 30414 (NORAD 57859) is a starlink constellation satellite (v2 mini) launched Sep 12, 2023 by SPXS of US. It operates in LEO, CIRCULAR orbit with a mass of 730.00 kg.

关于 Starlink 30414

正在加载描述...

即将过境

Passes for default location (London). Set your location on the main map for personalized predictions.

高度历史

Loading altitude history...

两行轨道根数

1 57859U 23141V 26170.27008848 -.00000480 00000-0 -40869-5 0 9994
2 57859 53.1596 172.0609 0001235 91.8780 268.2362 15.30185897155887
Epoch: Jun 19, 2026 • Age: 10 hours

当前状态

高度 487.9 km
速度 7.62 km/s
星下点 -37.25°S, 136.62°W
发射日期 Sep 12, 2023
运行时间 2.7 years
类型 internet

技术详情

分类 Payload
质量 730.00 kg
干质量 700.00 kg
总质量 730.00 kg
长度 0.30 m
直径 4.10 m
跨度 29.00 m
形状 Box + pan
制造商 SPXS
平台类型 Starlink V2M
阶段状态 In Orbit
所有者/国家 SPXS/US

Most Searched